Zurück zum Katalog

OPS 9845

DMSP 5D-2 F6

AktivWetterSSO
NORAD 13736·PAYLOAD·🇺🇸 United States

Gestartet Dec 21, 1982 von Vandenberg Space Force Base

Loading…

Nächste Überflüge (nächste 24 Stunden)

TLE

AktuellSource: Space-Track

Epoche: Sep 14, 2026, 12:52 UTC

1 13736U 82118A   26257.53639585  .00000097  00000-0  53898-4 0  9999
2 13736  98.5938  84.0886 0008593  66.1558 294.0525 14.30547584277783

Verfolge OPS 9845 in Echtzeit mit AllMySat

Download on the App Store